Weather Roundup
Issued by NWS

Home | Current Version | Previous Version | Graphics & Text | Print | Product List | Glossary Off
Versions: 1 2 3 4 5 6 7 8 9 10 11 12 13 14 15 16 17 18 19 20 21 22 23 24 25 26 27 28 29 30 31 32 33 34 35 36 37 38 39 40 41 42 43 44 45 46 47 48 49 50

000
NZUS93 KARX 180159
HRRWXR

CURRENT HOURLY OBSERVATIONS ACROSS
MUCH OF THE UPPER MISSISSIPPI VALLEY
NATIONAL WEATHER SERVICE LA CROSSE WI
800 PM CST SAT FEB 17 2018


...SOUTHEAST MINNESOTA...


CITY           SKY/WX    TMP DP  RH WIND       PRES   REMARKS
ROCHESTER      FAIR      22  18  85 W12       30.02R WCI  10
ROCHESTER/MAYO FAIR      28  21  73 W10G16    30.02R WCI  19
WINONA         FAIR      30  25  80 W6        30.01R WCI  24
AUSTIN         FAIR      21  18  86 SW7       30.04R WCI  13
ALBERT LEA     FAIR      27  21  80 SW6       30.04R WCI  20
DODGE CENTER   FAIR      19  14  79 SW8       30.02R WCI   9
PRESTON        FAIR      25  20  82 W14       30.03R WCI  13
OWATONNA       FAIR      19  14  79 W7        30.03R WCI  10
FARIBAULT      FAIR      27  12  54 W6        30.04R WCI  20
$$

...ELSEWHERE IN MINNESOTA...


CITY           SKY/WX    TMP DP  RH WIND       PRES   REMARKS
MINNEAPOLIS    FAIR      27  12  53 NW14      30.03R WCI  16
INTNL FALLS    MOCLDY    13   1  59 W7        29.88R WCI   3
DULUTH         FAIR      19   5  54 W10       29.89R WCI   7
RED WING       FAIR      28  10  47 NW7       30.01R WCI  21
REDWOOD FALLS  CLEAR     23  11  60 W7        30.05R WCI  15
MANKATO        FAIR      27  16  63 W7        30.06R WCI  19
WORTHINGTON    CLEAR     20  18  92 W9        30.06S WCI   9
FAIRMONT       CLEAR     23  17  78 W10       30.08R WCI  12
$$

...SOUTHWEST WISCONSIN...


CITY           SKY/WX    TMP DP  RH WIND       PRES   REMARKS
LA CROSSE      FAIR      27  22  81 SW9       30.03R WCI  18
PRAIRIE DU CHI MOCLDY    29  23  76 SW6       30.07R WCI  23
BOSCOBEL       MOCLDY    30  23  75 SW7       30.07R WCI  23
LONE ROCK      NOT AVBL
PLATTEVILLE    CLOUDY    29  26  87 W15G23    30.06R WCI  18
FORT MC COY    FAIR      26  23  88 CALM      30.02R
CAMP DOUGLAS   FAIR      25  21  84 SW8       29.99S WCI  16
MAUSTON-NEW LI FAIR      28  22  79 W9        30.00R WCI  19
VIROQUA        FAIR      24  23  96 W9        30.00R WCI  15
WIS DELLS      CLOUDY    28  22  79 W10G17    30.00R WCI  18
$$

...ELSEWHERE IN WISCONSIN...


CITY           SKY/WX    TMP DP  RH WIND       PRES   REMARKS
MILWAUKEE      MOCLDY    31  25  78 W9G21     30.01R WCI  23
MADISON        FAIR      27  21  78 VRB3      30.02R
GREEN BAY      CLOUDY    28  21  75 W12       29.96R WCI  18
EAU CLAIRE     NOT AVBL
BLACK RVR FLS  FAIR      24  20  86 SW3       29.99R
MEDFORD        FAIR      21  18  91 SW8       29.89R WCI  11
WAUSAU         FAIR      24  19  81 W10       29.91R WCI  14
WIS RAPIDS     FAIR      25  18  74 W8        29.98R WCI  16
MARSHFIELD     FAIR      22  19  89 SW8       29.93R WCI  12
RICE LAKE      FAIR      26  10  52 W7        29.96R WCI  18
$$

...NORTHEAST IOWA...


CITY           SKY/WX    TMP DP  RH WIND       PRES   REMARKS
WATERLOO       FAIR      26  24  92 W8        30.11R WCI  18
DUBUQUE        FAIR      25  21  85 W12       30.08R WCI  14
DECORAH        FAIR      25  23  93 VRB6      30.03S WCI  18
MASON CITY     CLEAR     27  22  81 SW15      30.09R WCI  15
CHARLES CITY   FAIR      25  25 100 W8        30.07R WCI  16
OELWEIN        FAIR      23  23 100 W10       30.09R WCI  12
$$

...ELSEWHERE IN IOWA...


CITY           SKY/WX    TMP DP  RH WIND       PRES   REMARKS
DES MOINES     CLEAR     32  25  75 W3        30.14R
IOWA CITY      FAIR      24  20  84 CALM      30.15R
FORT DODGE     CLEAR     27  23  85 W12       30.12R WCI  17
MARSHALLTOWN   CLEAR     26  24  92 W3        30.12R
CEDAR RAPIDS   FAIR      21  19  92 W8        30.12R WCI  11
$$

...NORTHERN ILLINOIS...


CITY           SKY/WX    TMP DP  RH WIND       PRES   REMARKS
CHICAGO-OHARE  CLOUDY    31  26  82 W17G23    30.04R WCI  19
CHICAGO-MIDWAY FAIR      32  27  81 W17G25    30.05R WCI  21
MOLINE         CLOUDY    29  24  82 W10       30.14R WCI  20
ROCKFORD       MOCLDY    28  22  78 W12       30.09R WCI  18
PEORIA         FAIR      29  24  82 NW5       30.14R WCI  24
$$

NOTE: "FAIR" INDICATES FEW OR NO CLOUDS BELOW 12,000 FEET WITH NO
SIGNIFICANT WEATHER AND/OR OBSTRUCTIONS TO VISIBILITY. WIND
SPEEDS ARE IN MILES-PER-HOUR.




USA.gov is the U.S. government's official web portal to all federal, state and local government web resources and services.